Content
SEND FEEDBACK

Daily
Averages
Monthly
Summary
United States of America

LOUDON, TENNESSEE


Home > North America > United States > Tennessee
Elevation: 82 feet     Latitude: 35 44N     Longitude: 084 21W

WEATHER
 
SELECT A DAY
Number of Records: 202,058;   Date Range: 1/1/95 - 7/26/14
 
SHARE

PRINT THIS DATA

[ ← Previous Day ]
WEATHER ALMANAC - APRIL 16, 2014
[ Next Day → ]
[ °C ]   °F
Weather ElementAverageHighLow
Temperature44.6 °F57.9 °F (4:53 pm)30.9 °F (5:53 am)
Dewpoint25.5 °F33.8 °F (11:53 pm)21 °F (3:53 am)
Humidity49.5 %69 % (2:53 am)32 % (3:53 pm)
Barometer30.27 in30.35 in (11:53 am)30.20 in (6:53 pm)
Wind Speed8.2 mph13.8 mph (8:53 am)
Wind Gust23 mph (9:53 am)
Weather ElementAverage
Visibility10 mi
Wind DirectionNNE (36.8 °)

Weather ElementTotal
Precipitation---
Heating Degree Days20.6 (Base 65)
Averaged from 22 records on April 16, 2014
WEATHER CONDITIONS BREAKOUT
WIND DIRECTION BREAKOUT
WEATHER BY HOUR - APRIL 16, 2014
[ °C ]   °F
Local TimeTemperatureDewpointHumidityBarometerVisibilityWind DirectionWind SpeedGust SpeedPrecipitationEventsConditions
1:53 AM34.0 °F23.0 °F64 %30.23 in10.0 miNorth (10°)6.9 mphScattered Clouds
2:53 AM32.0 °F23.0 °F69 %30.25 in10.0 miNNE (30°)6.9 mphClear
3:53 AM33.1 °F21.0 °F61 %30.27 in10.0 miNNE (20°)9.2 mphClear
4:53 AM32.0 °F21.9 °F66 %30.27 in10.0 miNNE (20°)10.4 mphClear
5:53 AM30.9 °F21.9 °F69 %30.28 in10.0 miNE (40°)11.5 mphClear
6:53 AM30.9 °F21.9 °F69 %30.31 in10.0 miNNE (30°)11.5 mphClear
7:53 AM32.0 °F21.9 °F66 %30.31 in10.0 miNE (40°)11.5 mphClear
8:53 AM36.0 °F23.0 °F59 %30.33 in10.0 miENE (60°)13.8 mphClear
9:53 AM39.9 °F25.0 °F55 %30.33 in10.0 miNE (50°)12.7 mph23.0 mphClear
11:53 AM45.0 °F21.0 °F39 %30.35 in10.0 miENE (70°)13.8 mphPartly Cloudy
12:53 PM48.0 °F23.0 °F37 %30.32 in10.0 miNNE (20°)11.5 mph19.6 mphPartly Cloudy
1:53 PM53.6 °F26.6 °F35 %30.29 in10.0 miNE (50°)11.5 mph17.3 mphPartly Cloudy
2:53 PM54.0 °F25.0 °F33 %30.27 in10.0 miENE (60°)10.4 mphPartly Cloudy
3:53 PM55.9 °F26.1 °F32 %30.25 in10.0 miNE (50°)4.6 mphPartly Cloudy
4:53 PM57.9 °F28.0 °F32 %30.22 in10.0 miNNE (20°)8.1 mphPartly Cloudy
5:53 PM57.9 °F28.0 °F32 %30.21 in10.0 miNNE (30°)6.9 mphPartly Cloudy
6:53 PM57.9 °F28.9 °F33 %30.20 in10.0 miNNE (20°)9.2 mphPartly Cloudy
7:53 PM55.0 °F28.9 °F37 %30.20 in10.0 miNorth (10°)5.8 mphPartly Cloudy
8:53 PM54.0 °F28.0 °F37 %30.22 in10.0 miCalmPartly Cloudy
9:53 PM51.1 °F30.0 °F44 %30.24 in10.0 miCalmPartly Cloudy
10:53 PM46.4 °F30.2 °F53 %30.26 in10.0 miCalmPartly Cloudy
11:53 PM44.6 °F33.8 °F66 %30.26 in10.0 miSouth (180°)3.5 mphPartly Cloudy
Hourly data recorded from KTYS, located miles away from Loudon, Tennessee







STORIES FROM OUR PARTNERS